Weather History for EGMH - April, 2014

Change the Weather History Date:

Monday, April 7, 2014

  Actual Average Record
Temperature  
Mean Temperature 57 °F -  
Max Temperature 61 °F - - ()
Min Temperature 52 °F - - ()
Degree Days  
Heating Degree Days 8    
Growing Degree Days 7 (Base 50)    
Moisture  
Dew Point 54 °F    
Average Humidity 93    
Maximum Humidity 100    
Minimum Humidity 78    
Precipitation  
Precipitation 0.47 in - - ()
Sea Level Pressure  
Sea Level Pressure 29.83 in    
Wind  
Wind Speed 13 mph ()    
Max Wind Speed 23 mph    
Max Gust Speed -    
Visibility 8.8 miles    
Events Rain    
T = Trace of Precipitation, MM = Missing Value Source: Averaged Metar Reports

Daily Weather History Graph

Daily Weather History Graph

Search for Another Location

Airport or City:

Trip Planner

Search our weather history database for the weather conditions in past years. The results will help you decide how hot, cold, wet, or windy it might be!

Date:

Astronomy

Apr. 07, 2014 Rise Set
Actual Time 6:17 AM BST 7:37 PM BST
Civil Twilight 5:42 AM BST 8:11 PM BST
Nautical Twilight 5:01 AM BST 8:53 PM BST
Astronomical Twilight 4:15 AM BST 9:39 PM BST
Moon 11:40 AM BST (4/7) 2:24 AM BST (4/7)
Length of Visible Light 14h 29m
Length of Day
13h 20m
Waxing Crescent, 51% of the Moon is Illuminated
Apr 7
Waxing Crescent
Apr 15
Full
Apr 22
Last Quarter
Apr 29
New
May 7
First Quarter

Hourly Weather History & Observations

Time (BST) Temp. Dew Point Humidity Pressure Visibility Wind Dir Wind Speed Gust Speed Precip Events Conditions
12:00 AM 56 °F 52 °F 80% 29.98 in 17 mi SSW 10.4 mph - -   Partly Cloudy
1:00 AM 56 °F 51 °F 78% 29.97 in 19 mi SSW 11.5 mph - -   Mostly Cloudy
2:00 AM 56 °F 52 °F 81% 29.97 in 17 mi SSW 13.8 mph - -   Scattered Clouds
3:00 AM 55 °F 51 °F 84% 29.95 in 16 mi SSW 10.4 mph - -   Partly Cloudy
4:00 AM 56 °F 52 °F 80% 29.94 in 17 mi SSW 16.1 mph - -   Overcast
5:00 AM 55 °F 52 °F 85% 29.93 in 16 mi SSW 15.0 mph - -   Scattered Clouds
5:50 AM 55.4 °F 51.8 °F 88% 29.92 in - SSW 12.7 mph - N/A   Clear
6:00 AM 56 °F 52 °F 80% 29.94 in 17 mi SSW 11.5 mph - -   Overcast
6:20 AM 55.4 °F 53.6 °F 94% 29.92 in 6.2 mi SSW 12.7 mph - N/A   Scattered Clouds
6:50 AM 55.4 °F 53.6 °F 94% 29.92 in 6.2 mi SSW 15.0 mph - N/A   Scattered Clouds
7:00 AM 55 °F 53 °F 90% 29.93 in 13 mi SSW 15.0 mph - - Rain Light Rain Showers
7:20 AM 55.4 °F 53.6 °F 94% 29.92 in 6.2 mi SSW 13.8 mph - N/A   Light Drizzle
7:50 AM 55.4 °F 53.6 °F 94% 29.92 in 6.2 mi SSW 15.0 mph - N/A Rain Light Rain
8:00 AM 55 °F 54 °F 93% 29.92 in 11 mi SSW 13.8 mph - - Rain Light Rain
8:20 AM 55.4 °F 53.6 °F 94% 29.92 in 6.2 mi South 13.8 mph - N/A   Scattered Clouds
8:50 AM 55.4 °F 53.6 °F 94% 29.89 in 6.2 mi South 13.8 mph - N/A   Scattered Clouds
9:00 AM 56 °F 54 °F 93% 29.91 in 14 mi South 13.8 mph - - Rain Rain
9:20 AM 57.2 °F 55.4 °F 94% 29.89 in 6.2 mi South 11.5 mph - N/A Rain Light Rain
9:50 AM 55.4 °F 55.4 °F 100% 29.89 in 1.9 mi South 13.8 mph - N/A Rain Heavy Rain
10:00 AM 55 °F 55 °F 100% 29.89 in 3 mi South 12.7 mph - - Rain Rain Showers
10:50 AM 57.2 °F 55.4 °F 94% 29.86 in 3.1 mi South 18.4 mph - N/A Rain Light Rain
11:00 AM 56 °F 56 °F 100% 29.87 in 12 mi South 13.8 mph - - Rain Light Rain
11:20 AM 57.2 °F 57.2 °F 100% 29.86 in 6.2 mi South 15.0 mph - N/A   Scattered Clouds
11:50 AM 59.0 °F 57.2 °F 94% 29.83 in 6.2 mi South 17.3 mph - N/A   Scattered Clouds
12:00 PM 58 °F 57 °F 95% 29.85 in 9 mi South 19.6 mph - - Rain Light Rain Showers
12:20 PM 59.0 °F 57.2 °F 94% 29.83 in 6.2 mi South 18.4 mph - N/A Rain Light Rain
12:50 PM 60.8 °F 57.2 °F 88% 29.83 in 6.2 mi SSW 18.4 mph - N/A Rain Light Rain
1:00 PM 60 °F 57 °F 87% 29.83 in 13 mi South 19.6 mph - - Rain Rain
1:20 PM 57.2 °F 55.4 °F 94% 29.83 in 5.0 mi SSW 19.6 mph - N/A Rain Rain
1:50 PM 57.2 °F 55.4 °F 94% 29.80 in 5.0 mi SSW 13.8 mph - N/A Rain Light Rain
2:00 PM 56 °F 56 °F 100% 29.82 in 5 mi SSW 13.8 mph - - Rain Rain
2:20 PM 57.2 °F 55.4 °F 94% 29.80 in 6.2 mi South 11.5 mph - N/A Rain Light Rain
2:50 PM 55.4 °F 55.4 °F 100% 29.77 in 6.2 mi South 15.0 mph - N/A Rain Light Rain
3:00 PM 56 °F 56 °F 99%  in - South 15.0 mph - -  
3:20 PM 55.4 °F 55.4 °F 100% 29.77 in 6.2 mi SSW 17.3 mph - N/A Rain Light Rain
3:50 PM 57.2 °F 55.4 °F 94% 29.74 in 6.2 mi South 16.1 mph - N/A Rain Light Rain
4:00 PM 56 °F 56 °F 100%  in - South 16.1 mph - -  
4:20 PM 57.2 °F 55.4 °F 94% 29.74 in 6.2 mi SSW 17.3 mph - N/A   Mostly Cloudy
4:50 PM 57.2 °F 55.4 °F 94% 29.74 in 6.2 mi SSW 13.8 mph - N/A   Mostly Cloudy
5:00 PM 57 °F 57 °F 98% 29.73 in 14 mi SSW 13.8 mph - - Rain Rain
5:20 PM 57.2 °F 55.4 °F 94% 29.71 in 6.2 mi SW 16.1 mph - N/A   Partly Cloudy
5:50 PM 57.2 °F 55.4 °F 94% 29.71 in 6.2 mi SSW 16.1 mph - N/A   Scattered Clouds
6:00 PM 57 °F 55 °F 91% 29.71 in 22 mi SSW 16.1 mph - -   Scattered Clouds
6:20 PM 57.2 °F 55.4 °F 94% 29.68 in 6.2 mi SSW 18.4 mph - N/A   Scattered Clouds
6:50 PM 55.4 °F 53.6 °F 94% 29.68 in 6.2 mi SW 16.1 mph - N/A Rain Light Rain Showers
7:00 PM 56 °F 54 °F 92% 29.71 in 9 mi SW 18.4 mph - -   Mostly Cloudy
7:20 PM 55.4 °F 53.6 °F 94% 29.71 in 6.2 mi SW 13.8 mph - N/A   Scattered Clouds
7:50 PM 55.4 °F 53.6 °F 94% 29.71 in 6.2 mi SSW 11.5 mph - N/A   Scattered Clouds
8:00 PM 55 °F 53 °F 92% 29.71 in 13 mi SSW 9.2 mph - -   Scattered Clouds
8:20 PM 53.6 °F 53.6 °F 100% 29.71 in 6.2 mi SSW 13.8 mph - N/A   Partly Cloudy
9:00 PM 55 °F 53 °F 92% 29.70 in 11 mi SSW 13.8 mph - -   Scattered Clouds
10:00 PM 54 °F 54 °F 98% 29.71 in 15 mi SW 16.1 mph - - Rain Rain
11:00 PM 52 °F 51 °F 95% 29.74 in 6 mi West 23.0 mph - - Rain Rain